Home   Weather   Patna   Past weeks

Flag for India Past Weather in Patna, Bihar, India — Yesterday and Last 2 Weeks

Now
84 °F

Broken clouds.


Feels Like: 94 °F
Forecast: 78 / 90 °F
Wind: 9 mph from East

Location: Patna Airport

Current Time: Sep 29, 2016 at 10:31:21 AM

Latest Report: Sep 29, 2016 at 10:00 AM


Visibility: 2 mi

Pressure: 29.71 "Hg

Humidity: 79%

Dew Point: 77 °F

Location of PatnaLocation

Past Weather in Patna — Graph

°F

Patna Temperature Yesterday

Maximum temperature yesterday: 86 °F (at 2:00 PM)
Minimum temperature yesterday: 75 °F (at 8:00 AM)
Average temperature yesterday: 81 °F

High & Low Weather Summary for the Past Weeks

 TemperatureHumidityPressure
High97 °F (Sep 15, 2:00 PM)100% (Sep 16, 9:30 PM)29.83 "Hg (Sep 16, 9:30 PM)
Low75 °F (Sep 28, 8:00 AM)59% (Sep 23, 1:30 PM)29.53 "Hg (Sep 16, 5:00 PM)
Average85 °F83%29.66 "Hg
* Reported Sep 14 9:30 AM — Sep 29 9:30 AM, Patna, Weather by CustomWeather, © 2016

Note: Actual official high and low records may vary slightly from our data, if they occured in-between our weather recording intervals... More about our weather records

Advertising

Patna Weather History for the Previous 24 Hours

Scroll right to see more
 ConditionsComfort  
Time TempWeatherWind HumidityBarometerVisibility
9:30 AM
Thu, Sep 29
82 °FBroken clouds.8 mph79%29.68 "Hg2 mi
9:00 AM82 °FBroken clouds.8 mph79%29.68 "Hg2 mi
8:30 AM81 °FBroken clouds.9 mph89%29.68 "Hg2 mi
8:00 AM81 °FBroken clouds.8 mph89%29.68 "Hg2 mi
7:30 AM81 °FBroken clouds.9 mph89%29.68 "Hg2 mi
7:00 AM79 °FBroken clouds.8 mph94%29.68 "Hg2 mi
6:30 AM77 °FBroken clouds.8 mph100%29.68 "Hg1 mi
5:30 AM77 °FPartly cloudy.9 mph100%29.65 "Hg1 mi
9:30 PM
Wed, Sep 28
81 °FPartly cloudy.6 mph89%29.65 "Hg2 mi
8:30 PM81 °FWarm.8 mph89%29.68 "HgN/A
8:00 PM82 °FPartly cloudy.9 mph89%29.65 "Hg2 mi
7:30 PM82 °FPartly cloudy.9 mph89%29.65 "Hg2 mi
7:00 PM82 °FPartly cloudy.9 mph89%29.65 "Hg2 mi
6:30 PM84 °FPartly cloudy.7 mph89%29.62 "Hg2 mi
6:00 PM84 °FBroken clouds.8 mph89%29.62 "Hg2 mi
5:30 PM84 °FBroken clouds.6 mph89%29.62 "Hg2 mi
5:00 PM84 °FBroken clouds.8 mph89%29.62 "Hg3 mi
4:30 PM86 °FBroken clouds.6 mph84%29.62 "Hg3 mi
4:00 PM86 °FBroken clouds.6 mph84%29.62 "Hg3 mi
3:30 PM86 °FBroken clouds.7 mph84%29.62 "Hg3 mi
3:00 PM86 °FBroken clouds.7 mph84%29.62 "Hg3 mi
2:30 PM86 °FBroken clouds.7 mph84%29.62 "Hg2 mi
2:00 PM86 °FBroken clouds.7 mph84%29.62 "Hg2 mi
1:30 PM84 °FBroken clouds.7 mph89%29.65 "Hg2 mi
1:00 PM84 °FPartly sunny.6 mph84%29.65 "Hg2 mi
12:30 PM81 °FPartly sunny.7 mph89%29.68 "Hg1 mi
11:30 AM79 °FWarm.6 mph94%29.71 "HgN/A
11:00 AM77 °FWarm.5 mph100%29.74 "HgN/A
10:30 AM77 °FWarm.5 mph100%29.74 "HgN/A
10:00 AM77 °FWarm.2 mph100%29.74 "HgN/A
Weather by CustomWeather, © 2016

See weather overviewHow to use our weather pages